Weather History for LEPP - January, 2013

Change the Weather History Date:

Thursday, January 24, 2013

  Actual Average Record
Temperature  
Mean Temperature 38 °F -  
Max Temperature 42 °F 48 °F 57 °F (2001)
Min Temperature 33 °F 34 °F 26 °F (2006)
Degree Days  
Heating Degree Days 28    
Moisture  
Dew Point 36 °F    
Average Humidity 94    
Maximum Humidity 100    
Minimum Humidity 81    
Precipitation  
Precipitation 0.00 in - - ()
Sea Level Pressure  
Sea Level Pressure 29.83 in    
Wind  
Wind Speed 6 mph ()    
Max Wind Speed 18 mph    
Max Gust Speed 32 mph    
Visibility 4.3 miles    
Events Rain , Snow    
Averages and records for this station are not official NWS values.
T = Trace of Precipitation, MM = Missing Value Source: Averaged Metar Reports

Daily Weather History Graph

Daily Weather History Graph

Search for Another Location

Airport or City:

Trip Planner

Search our weather history database for the weather conditions in past years. The results will help you decide how hot, cold, wet, or windy it might be!

Date:

Astronomy

Jan. 24, 2013 Rise Set
Actual Time 8:28 AM CET 6:09 PM CET
Civil Twilight 7:57 AM CET 6:39 PM CET
Nautical Twilight 7:23 AM CET 7:14 PM CET
Astronomical Twilight 6:50 AM CET 7:47 PM CET
Moon 3:57 PM CET (1/24) 6:16 AM CET (1/24)
Length of Visible Light 10h 42m
Length of Day
9h 40m
Waxing Gibbous, 93% of the Moon is Illuminated
Jan 24
Waxing Gibbous
Jan 27
Full
Feb 3
Last Quarter
Feb 10
New
Feb 17
First Quarter

Hourly Weather History & Observations

Time (CET) Temp. Windchill Dew Point Humidity Pressure Visibility Wind Dir Wind Speed Gust Speed Precip Events Conditions
12:00 AM 35.6 °F 25.5 °F 35.6 °F 100% 29.71 in 4.3 mi South 17.3 mph - N/A Rain Rain
5:30 AM 33.8 °F - 33.8 °F 100% 29.68 in 0.9 mi South 1.2 mph - N/A Snow Light Snow
5:50 AM 33.8 °F - 33.8 °F 100% 29.68 in 2.8 mi SE 1.2 mph - N/A Snow Light Snow
6:00 AM 33.8 °F - 33.8 °F 100% 29.68 in 1.9 mi Calm Calm - N/A Snow Light Snow
6:30 AM 33.8 °F - 33.8 °F 100% 29.68 in 4.3 mi Variable 1.2 mph - N/A Rain Rain
7:00 AM 33.8 °F - 33.8 °F 100% 29.68 in 5.0 mi Variable 2.3 mph - N/A Rain Light Rain
7:30 AM 33.8 °F 30.8 °F 33.8 °F 100% 29.68 in 6.2 mi SSE 3.5 mph - N/A Rain Light Rain
8:00 AM 33.8 °F 29.6 °F 33.8 °F 100% 29.68 in 2.5 mi WSW 4.6 mph 16.1 mph N/A Rain Rain
8:30 AM 33.8 °F - 33.8 °F 100% 29.68 in 2.5 mi Calm Calm - N/A Rain Rain
9:00 AM 33.8 °F 30.8 °F 33.8 °F 100% 29.68 in 2.5 mi ENE 3.5 mph - N/A Rain Rain
9:19 AM 33.8 °F - 33.8 °F 100% 29.68 in 1.2 mi ENE 2.3 mph - N/A Snow Snow
9:30 AM 33.8 °F - 33.8 °F 100% 29.71 in 2.5 mi ENE 2.3 mph - N/A Snow Light Snow
10:00 AM 33.8 °F - 33.8 °F 100% 29.71 in 1.2 mi Variable 2.3 mph - N/A Rain Rain
10:30 AM 33.8 °F - 33.8 °F 100% 29.74 in 1.9 mi South 2.3 mph - N/A Rain Light Rain
11:00 AM 33.8 °F - 33.8 °F 100% 29.77 in 2.5 mi South 2.3 mph - N/A Rain Rain
11:30 AM 35.6 °F - 35.6 °F 100% 29.80 in 1.9 mi Variable 1.2 mph - N/A Rain Rain
12:00 PM 37.4 °F - 37.4 °F 100% 29.80 in 3.1 mi Calm Calm - N/A Rain Rain
12:30 PM 39.2 °F - 39.2 °F 100% 29.80 in 5.0 mi WSW 1.2 mph - N/A Rain Light Rain
1:00 PM 41.0 °F 34.3 °F 37.4 °F 87% 29.80 in 2.5 mi NW 11.5 mph - N/A Rain Rain
1:30 PM 42.8 °F 34.8 °F 39.2 °F 87% 29.80 in 4.3 mi NW 17.3 mph 29.9 mph N/A Rain Light Rain
2:00 PM 42.8 °F 34.5 °F 41.0 °F 93% 29.83 in 5.6 mi NW 18.4 mph - N/A   Mostly Cloudy
2:30 PM 42.8 °F 35.1 °F 39.2 °F 87% 29.83 in 3.7 mi NW 16.1 mph 27.6 mph N/A Rain Light Rain
3:00 PM 42.8 °F 36.6 °F 39.2 °F 87% 29.86 in 5.6 mi NNW 11.5 mph - N/A   Mostly Cloudy
3:30 PM 42.8 °F 35.1 °F 37.4 °F 81% 29.86 in 4.3 mi NNW 16.1 mph 32.2 mph N/A Rain Light Rain
4:00 PM 41.0 °F 32.8 °F 39.2 °F 93% 29.89 in 4.3 mi NW 16.1 mph - N/A Rain Light Rain
4:30 PM 39.2 °F 30.5 °F 37.4 °F 93% 29.89 in 6.2 mi NW 16.1 mph - N/A   Scattered Clouds
5:00 PM 39.2 °F 30.8 °F 37.4 °F 93% 29.89 in 6.2 mi NW 15.0 mph - N/A   Scattered Clouds
5:30 PM 39.2 °F 32.0 °F 37.4 °F 93% 29.92 in 6.2 mi NNW 11.5 mph - N/A Rain Light Rain
6:00 PM 39.2 °F 30.5 °F 35.6 °F 87% 29.95 in 3.7 mi NNW 16.1 mph - N/A Rain Rain
6:30 PM 37.4 °F 32.1 °F 35.6 °F 93% 29.95 in 6.2 mi NNW 6.9 mph - N/A   Scattered Clouds
7:00 PM 39.2 °F 33.6 °F 35.6 °F 87% 29.98 in 6.2 mi NW 8.1 mph - N/A   Mostly Cloudy
7:30 PM 37.4 °F 32.1 °F 35.6 °F 93% 29.98 in 6.2 mi NW 6.9 mph - N/A   Mostly Cloudy
8:00 PM 39.2 °F 34.2 °F 37.4 °F 93% 29.98 in 6.2 mi WNW 6.9 mph - N/A   Scattered Clouds
8:30 PM 37.4 °F 32.8 °F 35.6 °F 93% 29.98 in 6.2 mi WNW 5.8 mph - N/A   Scattered Clouds
9:00 PM 39.2 °F 37.0 °F 35.6 °F 87% 30.01 in 6.2 mi WNW 3.5 mph - N/A   Scattered Clouds
9:30 PM 39.2 °F 34.2 °F 35.6 °F 87% 30.01 in 6.2 mi NNW 6.9 mph - N/A   Scattered Clouds
10:00 PM 41.0 °F 36.4 °F 35.6 °F 81% 30.01 in 6.2 mi NNW 6.9 mph - N/A   Scattered Clouds
10:30 PM 39.2 °F 35.0 °F 35.6 °F 87% 30.01 in 6.2 mi WNW 5.8 mph - N/A   Scattered Clouds
11:00 PM 39.2 °F 35.9 °F 33.8 °F 81% 30.01 in 6.2 mi NNW 4.6 mph - N/A   Mostly Cloudy
11:30 PM 39.2 °F 33.6 °F 35.6 °F 87% 30.01 in 6.2 mi NNW 8.1 mph - N/A   Mostly Cloudy